Tracking 31027 objects as of 19-Jul-2025
HD Live streaming from Space Station
objects crossing your sky now

COSMOS 2251 DEB

Track COSMOS 2251 DEB now!
10-day predictions


NORAD ID: 36074
Int'l Code: 1993-036AYM
Perigee: 724.2 km
Apogee: 791.1 km
Inclination: 74.0 °
Period: 99.8 minutes
Semi major axis: 7128 km
RCS: 0.0022 m2 (small)
Launch date: June 16, 1993
Source: Commonwealth of Independent States (former USSR) (CIS)
Launch site: PLESETSK MISSILE AND SPACE COMPLEX (PKMTR)

Note: This is SATELLITE DEBRIS
Your satellite tracking list
STARLINK-3674
Track 1 satellite(s)




NASA's NSSDC Master Catalog

Two Line Element Set (TLE):
1 36074U 93036AYM 25197.43651152  .00001646  00000-0  49889-3 0  9990
2 36074  73.9917 258.4447 0046886  24.5132 335.8238 14.42420028837569
Source of the keplerian elements: AFSPC